Showing default

QIANFAN-91, 66033

Orbit data source: Space-Track

QIANFAN-91, 66033 is a Chinese payload satellite in LEO that was launched on Fri, 17 Oct 2025 UTC via a CHANG ZHENG 6A launch vehicle from the Taiyaun Space Center, China (TSC). Payload-class satellites include a variety of spacecraft equipped with specific instruments for various scientific and technological missions. These include communications satellites like Starlink; space stations such as the ISS; scientific satellites like the Hubble; Earth observation satellites from companies like Planet Labs, Umbra, and HawkEye 360; GPS; miniature CubeSats for education and research; and military/defense satellites.

Loading next visibility...
Identifier
66033, 2025-233A
Orbit
LEO
Country
Flag of CNCN / PRC
Related business
Manufacturer
SECM
Mission
Operational Commercial Communications
Bus & Motor
QIANFAN, Unknown motor
Mass
267 kg wet, ~267 kg dry
Launch date (UTC)
2025-10-17 (8 months ago)
Launch vehicle
CHANG ZHENG 6A
Launch site
Taiyaun Space Center, China (TSC)
Object type
Payload
Rocket body
Debris
Shape & HBR
Box + 1 Pan, 14.5 m
Radar Cross Section
13.200 m², Large (>1 m²)

Expand to show TLE details & history
Last TLE update: 14 hours ago

TLE from 14 hours ago
0 QIANFAN-91
1 66033U 25233A   26177.39106213  .00000108  00000-0  14802-3 0  9998
2 66033  88.9996  42.2604 0001809  85.4205 274.7153 13.51012722 34425
Epoch: 2026-06-26T09:23Z
TLE epoch observation values (Epoch: 2026-06-26T09:23:07.768Z)
Latitude
0.00003°
Longitude
-13.04221°
Altitude
1,071.378 km
Speed
7.316 km/s
True Right ascension
02h 49m 02s
True Declination
0° 00' 00"
Sunlit
Object was in daylight at epoch
Visualization orbit readout
Latitude
Unknown
Longitude
Unknown
Altitude
Unknown
Speed
Unknown
Apparent Right ascension
Unknown
Apparent Declination
Unknown
Sunlit
N/A
Visualization observer readout
Local Sidereal Time
10:54:11
Azimuth
Unknown
Elevation
Unknown
Doppler factor
Unknown
Orbital elements
Apogee altitude
1,066.932 km
Perigee altitude
1,064.239 km
Semi-major axis
7,443.723 km
Eccentricity
0.00018
Inclination
88.9996°
RAAN
42.2604°
Arg. of periapsis
85.4205°
True anomaly
274.69464°
Mean anomaly
274.7153°
Eccentric anomaly
274.70497°
Mean motion
3.37954 °/min
Orbital period
106.52 mins
BSTAR
0.00014802
Loading maneuver chart data...
Computing Atmospheric mass density...
Loading historical data...
Loading historical data...
Loading historical data...
Loading historical data...
Loading historical data...
Loading historical data...
Loading historical data...

Documentation

Showing up to 5 results
|